Wind_Speed
20 23 23 24 25 31 33 35 36 34 34 36 37 37 36 38 37 29 29 28 24 22 20 20 19 21 19 17 15 13 12 11 10
20 23 25 27 27 34 34 35 37 37 35 35 36 38 37 37 37 34 28 30 30 23 22 17 19 22 19 18 18 17 15 13 12
18 21 23 23 24 33 36 38 38 37 36 37 37 36 36 35 36 37 34 29 30 28 24 22 19 23 21 19 18 18 18 14 13
20 20 22 23 24 35 38 37 37 39 38 36 36 36 35 35 33 34 33 30 30 30 30 26 25 24 23 20 19 19 19 19 16
21 21 22 23 24 31 34 37 38 41 40 40 39 38 37 36 35 33 31 33 29 29 32 30 29 26 25 23 20 19 18 18 17
14 19 20 20 19 21 28 34 37 39 40 43 41 38 37 35 35 32 33 33 32 31 34 34 29 26 27 24 24 21 20 21 19
10 13 16 16 17 18 27 32 36 37 38 39 39 38 37 35 36 36 35 33 32 31 35 35 33 31 28 26 25 23 21 20 20
4 8 12 17 20 19 22 28 32 34 34 36 38 37 37 38 36 35 33 31 32 32 31 35 36 32 29 27 25 25 25 24 22
11 11 11 13 19 19 19 29 34 38 38 38 38 37 37 35 34 33 34 33 32 30 32 33 30 29 28 27 28 30 33 31 24
11 13 13 14 16 19 23 32 36 37 40 38 38 37 34 34 33 34 34 33 32 32 32 29 29 28 28 29 32 37 37 37 33
13 15 16 17 16 18 30 35 37 32 34 38 37 35 34 33 34 33 32 31 31 31 30 29 29 28 29 29 32 38 39 38 38
14 16 17 18 25 29 27 31 34 33 33 35 34 33 34 34 34 32 31 31 31 29 27 27 28 27 27 29 32 37 37 35 30
14 13 13 14 23 25 28 30 34 33 33 35 35 36 36 33 34 33 33 32 31 30 29 28 26 27 28 29 30 32 36 33 27
12 13 14 4 18 19 25 31 33 30 31 34 34 29 30 31 33 32 31 30 28 27 27 25 26 26 26 26 28 30 34 32 30
15 15 18 15 9 15 25 31 31 28 27 25 27 28 29 30 30 30 28 28 26 27 26 25 24 24 23 23 24 29 28 29 30
15 17 17 21 17 19 15 13 17 20 18 25 30 29 29 28 28 27 25 27 26 25 25 24 24 23 22 21 20 21 24 28 26
16 17 16 23 25 23 22 19 15 11 8 15 24 26 26 27 28 27 26 25 25 25 24 24 23 21 20 19 18 18 17 19 26
12 17 26 25 22 23 23 22 21 16 12 4 14 20 23 24 24 28 26 24 22 24 22 24 23 21 20 19 17 17 16 15 14
18 20 26 26 27 24 22 21 20 18 16 11 6 8 10 13 15 20 22 22 17 20 20 23 23 18 16 17 15 13 13 14 14
21 23 26 27 23 22 20 20 20 20 18 14 13 7 10 8 4 13 11 16 16 11 6 12 17 19 18 17 14 16 13 11 9
Wind_Direction
203 204 204 204 200 199 199 197 197 198 199 202 206 210 212 217 221 218 221 224 221 224 229 230 225 230 229 227 229 232 237 232 231
199 201 203 203 200 200 198 198 196 199 199 202 205 209 212 214 218 218 220 221 228 230 232 230 226 228 226 228 230 232 235 232 237
207 204 205 205 202 200 200 199 198 198 201 201 204 208 209 214 214 221 222 222 224 222 228 233 220 221 225 228 232 233 235 236 240
214 206 204 204 204 202 200 198 197 199 200 201 201 205 208 209 214 217 218 220 226 225 229 229 224 223 225 229 232 234 234 239 240
220 215 208 207 205 201 201 199 197 199 200 201 202 204 205 208 211 213 213 217 220 222 227 228 228 224 225 227 229 231 234 238 240
214 213 217 211 200 198 199 198 198 199 198 203 204 200 203 207 208 210 212 213 216 218 226 228 226 225 224 224 228 231 237 242 243
231 217 217 209 205 202 200 198 199 198 198 200 200 200 202 203 204 206 211 211 211 213 224 227 225 225 225 223 228 231 235 238 241
257 236 222 205 200 197 197 196 197 198 197 196 196 196 197 200 204 206 208 207 208 214 217 225 227 227 226 226 227 231 231 232 235
280 275 258 229 215 202 196 195 192 192 192 193 190 193 198 198 198 200 204 206 206 209 217 222 221 221 224 225 227 232 233 233 232
286 281 276 261 236 211 200 198 192 191 190 186 189 193 194 194 195 197 202 204 203 206 213 218 219 221 223 227 231 236 238 241 239
302 294 286 270 255 230 210 202 198 190 186 184 186 190 191 192 194 197 200 202 204 207 211 213 216 221 223 228 235 241 244 245 246
303 288 278 270 256 233 210 195 186 181 182 181 182 190 192 192 192 194 197 200 203 206 208 214 219 223 224 226 234 240 245 245 239
317 308 287 261 238 209 188 184 178 175 180 179 187 191 193 191 192 193 195 199 201 203 207 214 218 224 228 230 234 241 247 245 234
348 347 344 297 189 172 172 169 170 174 180 190 192 188 188 190 193 194 197 198 201 203 207 213 216 223 227 229 233 237 244 246 233
4 12 19 40 107 149 160 163 167 176 185 182 179 180 184 190 192 195 200 198 199 202 205 211 216 222 228 232 234 239 241 245 241
11 15 34 48 74 82 95 149 171 171 174 171 175 181 185 189 191 195 195 196 199 202 205 210 215 217 224 226 228 232 241 242 245
21 18 16 40 57 62 63 71 91 102 167 184 183 182 185 187 187 190 195 200 204 205 205 208 213 214 220 224 225 225 225 236 238
22 20 20 29 39 50 52 55 53 51 54 158 188 199 193 191 190 189 191 196 204 208 210 211 208 215 214 213 223 227 219 212 217
17 20 18 22 27 35 41 44 42 32 28 41 98 165 193 208 200 191 186 182 182 202 205 211 213 210 214 223 215 214 217 215 224
16 19 20 18 19 22 27 35 32 20 15 17 49 42 97 68 122 215 185 186 175 159 141 209 215 216 220 225 221 208 199 209 218
Height
724 731 736 742 748 756 763 770 778 785 791 797 803 809 814 820 825 831 835 838 843 846 850 853 855 857 859 862 864 866 868 870 872
715 720 724 730 738 746 752 761 766 774 783 790 796 801 808 813 818 823 828 832 835 841 845 849 851 853 856 859 861 863 865 867 869
705 708 716 722 729 734 741 748 757 766 774 779 786 795 801 807 811 816 821 826 829 834 839 843 846 849 852 854 857 859 861 864 866
694 699 704 709 714 721 728 739 748 754 764 772 779 786 794 799 804 808 815 820 823 828 833 837 840 844 847 850 852 854 856 859 862
684 688 691 695 702 713 721 727 736 743 751 761 768 775 784 790 796 802 807 812 817 822 826 831 835 838 841 844 847 849 851 854 857
681 683 687 690 699 704 710 718 725 733 740 748 757 766 774 782 788 795 799 803 809 814 819 824 828 831 835 839 842 844 846 848 850
681 682 683 688 694 697 702 708 716 723 730 740 748 757 764 772 778 783 790 795 801 806 810 816 820 823 828 832 836 839 841 843 844
678 679 680 681 682 687 693 701 709 717 726 733 739 747 754 760 768 776 782 789 793 799 804 808 813 817 821 825 829 832 833 836 838
679 678 678 677 678 680 685 690 696 704 714 722 731 738 744 753 760 768 774 780 786 792 796 800 806 810 814 818 821 823 825 829 832
683 681 678 677 674 672 675 679 687 695 702 713 722 730 738 745 753 759 765 772 778 783 788 794 798 803 806 809 812 814 817 821 825
684 678 673 669 667 664 666 671 680 691 701 705 714 723 730 737 744 751 759 765 770 775 781 786 790 795 798 802 804 806 810 814 818
686 678 670 661 657 654 656 664 672 683 693 700 709 716 722 728 735 743 751 757 763 769 775 780 783 787 791 792 795 797 800 805 809
680 671 661 651 645 643 649 658 668 676 686 692 698 705 712 721 729 735 742 748 755 760 766 771 776 779 781 784 786 789 791 795 801
677 665 652 640 636 639 646 653 662 671 680 682 689 702 710 716 722 728 734 741 748 754 760 764 767 770 773 776 778 780 782 785 790
677 669 656 646 645 645 648 654 660 668 675 682 690 697 704 710 716 723 729 734 741 747 752 757 760 763 765 768 770 771 773 775 779
683 674 665 660 655 655 657 662 665 670 676 680 686 693 698 704 711 717 722 728 734 740 744 748 752 755 758 760 763 765 765 768 771
688 681 674 669 663 661 665 669 675 674 680 680 686 688 692 698 703 709 716 722 727 731 735 739 743 746 750 753 755 757 759 761 764
696 690 683 677 674 673 674 676 677 681 680 683 683 690 689 692 697 702 708 715 719 723 727 731 735 739 742 745 747 750 752 755 758
699 693 691 686 682 681 684 684 686 687 687 686 689 690 693 697 699 702 704 706 710 716 721 726 731 734 738 740 741 744 748 750 753
707 704 700 699 697 695 694 693 693 692 691 691 688 691 694 698 702 716 702 709 707 713 720 722 726 732 735 736 737 741 744 746 749